Regional Weather Roundup
Issued by NWS

Home | Current Version | Previous Version | Text Only | Print | Product List | Glossary On
Versions: 1 2 3 4 5 6 7 8 9 10 11 12 13 14 15 16 17 18 19 20 21 22 23 24 25 26 27 28 29 30 31 32 33 34 35 36 37 38 39 40 41 42 43 44 45 46 47 48 49 50
000
ASUS43 KDTX 241610
RWRMI
MICHIGAN HOURLY REGIONAL WEATHER ROUNDUP
NATIONAL WEATHER SERVICE DETROIT/PONTIAC MI
1200 PM EDT SAT JUN 24 2017

NOTE: "FAIR" INDICATES FEW OR NO CLOUDS BELOW 12,000 FEET WITH NO
SIGNIFICANT WEATHER AND/OR OBSTRUCTION TO VISIBILITY.

MIZ047>049-052>055-059>063-066>070-074>076-081>083-241700-
SOUTHEAST LOWER MICHIGAN

CITY           SKY/WX    TMP DP  RH WIND       PRES   REMARKS
ADRIAN         MOSUNNY   74  53  48 W14       29.91R
ALMA           MOSUNNY   72  52  48 W9G23     29.86S
ANN ARBOR      MOSUNNY   73  54  51 W13G29    29.88R
BAD AXE        SUNNY     71  52  51 W12       29.83R
CARO           MOSUNNY   72  56  56 SW9G17    29.84R
DETROIT CITY   MOSUNNY   75  52  44 W9G20     29.85R
DETROIT        MOSUNNY   75  53  46 SW14G24   29.87R
FLINT          MOSUNNY   73  53  49 W10G21    29.85R
GROSSE ILE     MOSUNNY   74  54  48 W14       29.86R
HILLSDALE      CLOUDY    70  54  56 W8G18     29.91S
HOWELL         PTSUNNY   72  49  44 W13G18    29.88R

CITY           SKY/WX    TMP DP  RH WIND       PRES   REMARKS
JACKSON        CLOUDY    70  52  52 W12       29.90R
LAMBERTVILLE   SUNNY     74  53  48 W13G20    29.89R
LANSING        MOSUNNY   75  50  41 W16G22    29.88R
LAPEER         PTSUNNY   72  54  54 W10       29.85R
MASON          PTSUNNY   71  53  52 W13       29.89R
MONROE         MOSUNNY   74  56  51 W13G21    29.87S
MT. CLEMENS    MOSUNNY   76  56  49 W10G16    29.82S
PONTIAC        PTSUNNY   73  52  47 W13G21    29.85R
PORT HOPE        N/A     72  53  51 W8        29.80R
PORT HURON     SUNNY     72  52  49 W5        29.84S
TRI CITIES     PTSUNNY   72  55  55 W13       29.84R
MIDLAND        PTSUNNY   73  51  45 W10       29.83R
TROY           MOSUNNY   75  47  37 SW14      29.87R
SAGINAW HB     PTSUNNY   72  50  46 SW9       29.84R
$$
MIZ043>046-050>051-056>058-064>065-071>073-077>080-241700-
SOUTHWEST LOWER MICHIGAN

CITY           SKY/WX    TMP DP  RH WIND       PRES   REMARKS
BATTLE CREEK   PTSUNNY   71  55  56 W14       29.92R
BENTON HARBOR  PTSUNNY   67  55  65 W15G21    29.96R
BIG RAPIDS     CLOUDY    70  52  52 W13G21    29.85R
COLDWATER      CLOUDY    71  55  57 W9        29.92S
FREMONT        PTSUNNY   70  54  56 W7        29.87R
HOLLAND        CLOUDY    65  56  72 W10       29.94R
GRAND RAPIDS   PTSUNNY   71  58  63 W16G24    29.89R
IONIA          PTSUNNY   71  53  51 SW14      29.87S
KALAMAZOO      MOSUNNY   72  54  53 W12G22    29.92R
LUDINGTON      PTSUNNY   65  58  77 W10       29.88R
MARSHALL       CLOUDY    72  54  53 W14       29.90S
MOUNT PLEASANT SUNNY     72  51  48 W10G17    29.84R
MUSKEGON       PTSUNNY   66  57  72 W14       29.91R
SOUTH HAVEN    CLOUDY    67  58  74 W10G17    29.95R
$$
MIZ016>042-241700-
NORTHERN LOWER MICHIGAN

CITY           SKY/WX    TMP DP  RH WIND       PRES   REMARKS
ALPENA         PTSUNNY   69  52  54 NW7       29.79R
BELLAIRE       MOSUNNY   67  52  58 NW5       29.83R
CADILLAC       CLOUDY    71  52  52 W12G20    29.84S
CHARLEVOIX     PTSUNNY   63  54  73 W8        29.86R
FRANKFORT      MOSUNNY   67  55  64 W7        29.85R
GAYLORD        MOSUNNY   66  49  54 W8        29.82R
GRAYLING       MOSUNNY   69  49  48 W12G17    29.83R
HARBOR SPRINGS MOSUNNY   62  56  80 SW10      29.82R
HOUGHTON LAKE  PTSUNNY   70  52  52 W8G16     29.83R
MANISTEE       CLOUDY    64  56  75 NW10      29.87R
OSCODA         PTSUNNY   74  49  40 NW10G24   29.78S
PELLSTON       MOSUNNY   68  50  52 NW9       29.81R
ROGERS CITY    SUNNY     63  55  76 N13       29.81R
TRAVERSE CITY  MOSUNNY   69  51  52 NW9       29.82R
$$
MIZ007>008-015-241700-
EASTERN UPPER MICHIGAN

CITY           SKY/WX    TMP DP  RH WIND       PRES   REMARKS
KINROSS        SUNNY     64  49  57 N10       29.81R
MACKINAC ISLAN MOSUNNY   61  54  79 SW3       29.81R
NEWBERRY       PTSUNNY   64  53  65 NW8       29.82R
S. S. MARIE    SUNNY     66  51  58 W6        29.79R
MUNISING         N/A     57  51  80 N9        29.85R
$$
MIZ004>006-011>014-085-241700-
CENTRAL UPPER MICHIGAN

CITY           SKY/WX    TMP DP  RH WIND       PRES   REMARKS
MANISTIQUE     CLOUDY    66  50  55 NW5       29.82R
ESCANABA       CLOUDY    65  53  65 N5        29.84R
MENOMINEE      RAIN      62  56  80 NW5       29.86R
SAWYER-GWINN   PTSUNNY   61  52  72 W3        29.85R
$$
MIZ001>003-009>011-084-241700-
WESTERN UPPER MICHIGAN

CITY           SKY/WX    TMP DP  RH WIND       PRES   REMARKS
IRON MOUNTAIN  CLOUDY    61  54  77 N7        29.85R
HOUGHTON       CLOUDY    56  52  86 NW12      29.85R
COPPER HARBOR    N/A     55  50  83 N7        29.85R
IRONWOOD       LGT RAIN  55  51  86 W10       29.90R
$$

ABBREVIATIONS USED IN REMARKS
   TC - TEMPERATURE IN CELSIUS
  WCI - WIND CHILL INDEX
   HX - HEAT INDEX
  VSB - VISIBILITY




USA.gov is the U.S. government's official web portal to all federal, state and local government web resources and services.